Home   Weather   New York   Past weeks

Flag for USA Past Weather in New York, New York, USA — Yesterday and Last 2 Weeks

Now
74 °F

Clear.


Feels Like: 77 °F
Forecast: 66 / 85 °F
Wind: 5 mph from North

Location: New York City - Central Park

Current Time: Jun 29, 2017 at 12:00:29 am

Latest Report: Jun 28, 2017 at 10:51 pm


Visibility: 10 mi

Pressure: 30.11 "Hg

Humidity: 43%

Dew Point: 50 °F

Location of New YorkLocation

Past Weather in New York — Graph

°F

New York Temperature Yesterday

Maximum temperature yesterday: 78 °F (at 4:51 pm)
Minimum temperature yesterday: 62 °F (at 4:51 am)
Average temperature yesterday: 70 °F

High & Low Weather Summary for the Past Weeks

 TemperatureHumidityPressure
High87 °F (Jun 19, 12:51 pm)97% (Jun 14, 8:38 am)30.12 "Hg (Jun 14, 8:38 am)
Low61 °F (Jun 27, 5:51 am)33% (Jun 28, 4:51 pm)29.57 "Hg (Jun 24, 6:51 am)
Average74 °F69%29.91 "Hg
* Reported Jun 13 10:51 pm — Jun 28 10:51 pm, New York. Weather by CustomWeather, © 2017

Note: Actual official high and low records may vary slightly from our data, if they occured in-between our weather recording intervals... More about our weather records

Advertising

New York Weather History for the Previous 24 Hours

Scroll right to see more
 ConditionsComfort  
Time TempWeatherWind HumidityBarometerVisibility
10:51 pm
Wed, Jun 28
74 °FClear.5 mph43%30.11 "Hg10 mi
9:51 pm75 °FClear.3 mph40%30.10 "Hg10 mi
8:51 pm76 °FClear.7 mph37%30.09 "Hg10 mi
7:51 pm75 °FSunny.No wind39%30.08 "Hg10 mi
6:51 pm77 °FPassing clouds.3 mph37%30.08 "Hg10 mi
5:51 pm77 °FPassing clouds.5 mph36%30.08 "Hg10 mi
4:51 pm78 °FPassing clouds.7 mph33%30.09 "Hg10 mi
3:51 pm76 °FScattered clouds.No wind39%30.09 "Hg10 mi
2:51 pm76 °FScattered clouds.7 mph37%30.09 "Hg10 mi
1:51 pm75 °FScattered clouds.10 mph40%30.12 "Hg10 mi
12:51 pm75 °FPassing clouds.7 mph39%30.12 "Hg10 mi
11:51 am73 °FPassing clouds.5 mph41%30.12 "Hg10 mi
10:51 am71 °FSunny.6 mph45%30.12 "Hg10 mi
9:51 am68 °FSunny.N/A57%30.12 "Hg10 mi
8:51 am65 °FSunny.7 mph59%30.12 "Hg10 mi
7:51 am63 °FSunny.8 mph65%30.11 "Hg10 mi
6:51 am62 °FSunny.7 mph65%30.09 "Hg10 mi
5:51 am62 °FSunny.5 mph67%30.08 "Hg10 mi
4:51 am62 °FClear.3 mph65%30.07 "Hg10 mi
3:51 am63 °FClear.No wind63%30.06 "Hg10 mi
2:51 am63 °FClear.5 mph63%30.04 "Hg10 mi
1:51 am66 °FClear.6 mph54%30.03 "Hg10 mi
12:51 am67 °FClear.6 mph53%30.03 "Hg10 mi
Weather by CustomWeather, © 2017

See weather overviewHow to use our weather pages